Location: San Gennaro Vesuviano
(40.8833°N, 14.5333°E)
Time: 21:16:51
(UTC+00:00)

Cosmos 2279 Rocket - Pass Details

Date: 22 April 2021
Orbit: 964 x 978 km, 82.9° (Epoch: 10 May)

Event Time Altitude Azimuth Distance (km) Brightness Sun altitude
Rises 19:22:45 0° 192° (SSW) 3,636 6.8 -16.8°
Reaches altitude 10° 19:25:15 10° 194° (SSW) 2,693 6.1 -17.2°
Maximum altitude 19:31:24 71° 278° (W) 1,018 4.2 -18.1°
Drops below altitude 10° 19:37:36 10° 3° (N) 2,712 6.8 -19.0°
Sets 19:40:08 0° 6° (N) 3,664 7.5 -19.4°
